Time,TemperatureF,DewpointF,PressureIn,WindDirection,WindDirectionDegrees,WindSpeedMPH,WindSpeedGustMPH,Humidity,HourlyPrecipIn,Conditions,Clouds,dailyrainin,SolarRadiationWatts/m^2,SoftwareType,DateUTC
2013-03-24 00:01:00,35.2,30.9,30.27,SE,131,0.0,0.0,84,0.00,,,0.00,0,WeatherCatV1.14B232,2013-03-24 07:01:00,
2013-03-24 00:06:00,35.0,31.0,30.27,SE,128,0.0,2.0,85,0.00,,,0.00,0,WeatherCatV1.14B232,2013-03-24 07:06:00,
2013-03-24 00:11:00,35.0,30.7,30.27,SE,132,0.0,1.0,84,0.00,,,0.00,0,WeatherCatV1.14B232,2013-03-24 07:11:00,
2013-03-24 00:16:00,35.0,30.7,30.27,SE,124,0.0,0.0,84,0.00,,,0.00,0,WeatherCatV1.14B232,2013-03-24 07:16:00,
2013-03-24 00:21:00,34.9,30.9,30.27,SE,125,1.0,1.0,85,0.00,,,0.00,0,WeatherCatV1.14B232,2013-03-24 07:21:00,
2013-03-24 00:26:00,34.6,30.6,30.27,SE,125,0.0,0.0,85,0.00,,,0.00,0,WeatherCatV1.14B232,2013-03-24 07:26:00,
2013-03-24 00:31:00,34.3,30.6,30.27,SE,125,0.0,2.0,86,0.00,,,0.00,0,WeatherCatV1.14B232,2013-03-24 07:31:00,
2013-03-24 00:36:00,34.1,30.4,30.27,SE,125,0.0,0.0,86,0.00,,,0.00,0,WeatherCatV1.14B232,2013-03-24 07:36:00,
2013-03-24 00:41:00,33.8,30.3,30.27,SE,125,0.0,0.0,87,0.00,,,0.00,0,WeatherCatV1.14B232,2013-03-24 07:41:00,
2013-03-24 00:46:00,33.5,30.1,30.27,SE,125,0.0,0.0,87,0.00,,,0.00,0,WeatherCatV1.14B232,2013-03-24 07:46:00,
2013-03-24 00:51:00,33.4,30.2,30.27,SE,125,0.0,2.0,88,0.00,,,0.00,0,WeatherCatV1.14B232,2013-03-24 07:51:00,
2013-03-24 00:56:00,33.2,30.0,30.27,SE,126,0.0,0.0,88,0.00,,,0.00,0,WeatherCatV1.14B232,2013-03-24 07:56:00,
2013-03-24 01:01:00,32.9,29.7,30.27,SE,126,0.0,0.0,88,0.00,,,0.00,0,WeatherCatV1.14B232,2013-03-24 08:01:00,
2013-03-24 01:06:00,32.8,29.9,30.27,SE,126,0.0,0.0,89,0.00,,,0.00,0,WeatherCatV1.14B232,2013-03-24 08:06:00,
2013-03-24 01:11:00,32.7,29.8,30.27,SE,126,0.0,0.0,89,0.00,,,0.00,0,WeatherCatV1.14B232,2013-03-24 08:11:00,
2013-03-24 01:16:00,32.5,29.6,30.27,SE,126,0.0,0.0,89,0.00,,,0.00,0,WeatherCatV1.14B232,2013-03-24 08:16:00,
2013-03-24 01:21:00,32.2,29.3,30.27,SE,126,0.0,0.0,89,0.00,,,0.00,0,WeatherCatV1.14B232,2013-03-24 08:21:00,
2013-03-24 01:26:00,31.9,29.3,30.27,SE,126,0.0,0.0,90,0.00,,,0.00,0,WeatherCatV1.14B232,2013-03-24 08:26:00,
2013-03-24 01:31:00,31.6,29.0,30.27,SE,126,0.0,0.0,90,0.00,,,0.00,0,WeatherCatV1.14B232,2013-03-24 08:31:00,
2013-03-24 01:36:00,31.5,29.2,30.27,SE,126,0.0,0.0,91,0.00,,,0.00,0,WeatherCatV1.14B232,2013-03-24 08:36:00,
2013-03-24 01:41:00,31.3,29.0,30.27,SE,126,0.0,0.0,91,0.00,,,0.00,0,WeatherCatV1.14B232,2013-03-24 08:41:00,
2013-03-24 01:46:00,31.3,29.3,30.27,SE,126,0.0,0.0,92,0.00,,,0.00,0,WeatherCatV1.14B232,2013-03-24 08:46:00,
2013-03-24 01:51:00,31.0,29.0,30.27,SE,126,0.0,0.0,92,0.00,,,0.00,0,WeatherCatV1.14B232,2013-03-24 08:51:00,
2013-03-24 01:56:00,31.0,29.0,30.27,SE,126,0.0,0.0,92,0.00,,,0.00,0,WeatherCatV1.14B232,2013-03-24 08:56:00,
2013-03-24 02:01:00,30.7,28.7,30.27,SE,126,0.0,0.0,92,0.00,,,0.00,0,WeatherCatV1.14B232,2013-03-24 09:01:00,
2013-03-24 02:06:00,30.7,28.7,30.27,SE,126,0.0,0.0,92,0.00,,,0.00,0,WeatherCatV1.14B232,2013-03-24 09:06:00,
2013-03-24 02:11:00,30.7,28.7,30.27,SE,126,0.0,0.0,92,0.00,,,0.00,0,WeatherCatV1.14B232,2013-03-24 09:11:00,
2013-03-24 02:16:00,30.6,28.8,30.27,SE,126,0.0,0.0,93,0.00,,,0.00,0,WeatherCatV1.14B232,2013-03-24 09:16:00,
2013-03-24 02:21:00,30.4,28.6,30.27,SE,126,0.0,0.0,93,0.00,,,0.00,0,WeatherCatV1.14B232,2013-03-24 09:21:00,
2013-03-24 02:26:00,30.3,28.5,30.27,SE,126,0.0,0.0,93,0.00,,,0.00,0,WeatherCatV1.14B232,2013-03-24 09:26:00,
2013-03-24 02:31:00,30.1,28.3,30.27,SE,126,0.0,0.0,93,0.00,,,0.00,0,WeatherCatV1.14B232,2013-03-24 09:31:00,
2013-03-24 02:36:00,29.8,28.0,30.27,SE,126,0.0,0.0,93,0.00,,,0.00,0,WeatherCatV1.14B232,2013-03-24 09:36:00,
2013-03-24 02:41:00,29.7,27.9,30.27,SE,126,0.0,0.0,93,0.00,,,0.00,0,WeatherCatV1.14B232,2013-03-24 09:41:00,
2013-03-24 02:46:00,29.5,27.7,30.27,SE,126,0.0,0.0,93,0.00,,,0.00,0,WeatherCatV1.14B232,2013-03-24 09:46:00,
2013-03-24 02:51:00,29.4,27.6,30.27,SE,126,0.0,0.0,93,0.00,,,0.00,0,WeatherCatV1.14B232,2013-03-24 09:51:00,
2013-03-24 02:56:00,29.4,27.6,30.27,SE,126,0.0,0.0,93,0.00,,,0.00,0,WeatherCatV1.14B232,2013-03-24 09:56:00,
2013-03-24 03:01:00,29.4,27.9,30.27,SE,126,0.0,0.0,94,0.00,,,0.00,0,WeatherCatV1.14B232,2013-03-24 10:01:00,
2013-03-24 03:06:00,29.4,27.9,30.27,SE,126,0.0,0.0,94,0.00,,,0.00,0,WeatherCatV1.14B232,2013-03-24 10:06:00,
2013-03-24 03:11:00,29.7,28.4,30.27,SE,126,0.0,0.0,95,0.00,,,0.00,0,WeatherCatV1.14B232,2013-03-24 10:11:00,
2013-03-24 03:16:00,29.7,28.4,30.27,SE,126,0.0,0.0,95,0.00,,,0.00,0,WeatherCatV1.14B232,2013-03-24 10:16:00,
2013-03-24 03:21:00,29.5,28.0,30.27,SE,126,0.0,0.0,94,0.00,,,0.00,0,WeatherCatV1.14B232,2013-03-24 10:21:00,
2013-03-24 03:26:00,29.5,28.2,30.27,SE,126,0.0,0.0,95,0.00,,,0.00,0,WeatherCatV1.14B232,2013-03-24 10:26:00,
2013-03-24 03:31:00,29.5,28.0,30.27,SE,126,0.0,0.0,94,0.00,,,0.00,0,WeatherCatV1.14B232,2013-03-24 10:31:00,
2013-03-24 03:36:00,29.5,28.2,30.27,SE,126,0.0,0.0,95,0.00,,,0.00,0,WeatherCatV1.14B232,2013-03-24 10:36:00,
2013-03-24 03:41:00,29.5,28.2,30.27,SE,126,0.0,0.0,95,0.00,,,0.00,0,WeatherCatV1.14B232,2013-03-24 10:41:00,
2013-03-24 03:46:00,29.5,28.0,30.26,SE,126,0.0,0.0,94,0.00,,,0.00,0,WeatherCatV1.14B232,2013-03-24 10:46:00,
2013-03-24 03:52:00,29.5,28.0,30.26,SE,126,0.0,0.0,94,0.00,,,0.00,0,WeatherCatV1.14B232,2013-03-24 10:52:00,
2013-03-24 03:57:00,29.4,27.9,30.26,SE,126,0.0,0.0,94,0.00,,,0.00,0,WeatherCatV1.14B232,2013-03-24 10:57:00,
2013-03-24 04:02:00,29.4,27.9,30.26,SE,126,0.0,0.0,94,0.00,,,0.00,0,WeatherCatV1.14B232,2013-03-24 11:02:00,
2013-03-24 04:07:00,29.3,27.8,30.26,SE,126,0.0,0.0,94,0.00,,,0.00,0,WeatherCatV1.14B232,2013-03-24 11:07:00,
2013-03-24 04:11:00,29.3,27.8,30.26,SE,126,0.0,0.0,94,0.00,,,0.00,0,WeatherCatV1.14B232,2013-03-24 11:11:00,
2013-03-24 04:17:00,29.1,27.6,30.26,SE,126,0.0,0.0,94,0.00,,,0.00,0,WeatherCatV1.14B232,2013-03-24 11:17:00,
2013-03-24 04:22:00,29.1,27.6,30.26,SE,126,0.0,0.0,94,0.00,,,0.00,0,WeatherCatV1.14B232,2013-03-24 11:22:00,
2013-03-24 04:27:00,29.0,27.5,30.26,SE,126,0.0,0.0,94,0.00,,,0.00,0,WeatherCatV1.14B232,2013-03-24 11:27:00,
2013-03-24 04:32:00,29.0,27.5,30.25,SE,126,0.0,0.0,94,0.00,,,0.00,0,WeatherCatV1.14B232,2013-03-24 11:32:00,
2013-03-24 04:37:00,28.8,27.3,30.25,SE,126,0.0,0.0,94,0.00,,,0.00,0,WeatherCatV1.14B232,2013-03-24 11:37:00,
2013-03-24 04:42:00,28.8,27.3,30.25,SE,126,0.0,0.0,94,0.00,,,0.00,0,WeatherCatV1.14B232,2013-03-24 11:42:00,
2013-03-24 04:47:00,28.7,27.2,30.25,SE,126,0.0,0.0,94,0.00,,,0.00,0,WeatherCatV1.14B232,2013-03-24 11:47:00,
2013-03-24 04:52:00,28.7,27.2,30.25,SE,126,0.0,0.0,94,0.00,,,0.00,0,WeatherCatV1.14B232,2013-03-24 11:52:00,
2013-03-24 04:57:00,28.5,27.0,30.25,SE,126,0.0,0.0,94,0.00,,,0.00,0,WeatherCatV1.14B232,2013-03-24 11:57:00,
2013-03-24 05:02:00,28.5,27.0,30.25,SE,126,0.0,0.0,94,0.00,,,0.00,0,WeatherCatV1.14B232,2013-03-24 12:02:00,
2013-03-24 05:07:00,28.5,27.0,30.25,SE,126,0.0,0.0,94,0.00,,,0.00,0,WeatherCatV1.14B232,2013-03-24 12:07:00,
2013-03-24 05:12:00,28.5,27.0,30.25,SE,126,0.0,0.0,94,0.00,,,0.00,0,WeatherCatV1.14B232,2013-03-24 12:12:00,
2013-03-24 05:17:00,28.5,27.0,30.25,SE,126,0.0,0.0,94,0.00,,,0.00,0,WeatherCatV1.14B232,2013-03-24 12:17:00,
2013-03-24 05:22:00,28.5,27.0,30.25,ESE,119,0.0,0.0,94,0.00,,,0.00,0,WeatherCatV1.14B232,2013-03-24 12:22:00,
2013-03-24 05:27:00,28.5,27.0,30.25,ESE,119,0.0,0.0,94,0.00,,,0.00,0,WeatherCatV1.14B232,2013-03-24 12:27:00,
2013-03-24 05:32:00,28.5,27.0,30.25,ESE,119,0.0,0.0,94,0.00,,,0.00,0,WeatherCatV1.14B232,2013-03-24 12:32:00,
2013-03-24 05:37:00,28.7,27.2,30.25,ESE,119,0.0,0.0,94,0.00,,,0.00,0,WeatherCatV1.14B232,2013-03-24 12:37:00,
2013-03-24 05:42:00,28.7,27.2,30.25,ESE,119,0.0,0.0,94,0.00,,,0.00,0,WeatherCatV1.14B232,2013-03-24 12:42:00,
2013-03-24 05:47:00,28.8,27.3,30.24,ESE,119,0.0,0.0,94,0.00,,,0.00,0,WeatherCatV1.14B232,2013-03-24 12:47:00,
2013-03-24 05:52:00,28.8,27.6,30.24,ESE,119,0.0,0.0,95,0.00,,,0.00,0,WeatherCatV1.14B232,2013-03-24 12:52:00,
2013-03-24 05:57:00,29.0,27.8,30.24,ESE,119,0.0,0.0,95,0.00,,,0.00,0,WeatherCatV1.14B232,2013-03-24 12:57:00,
2013-03-24 06:02:00,29.0,27.8,30.24,ESE,119,0.0,0.0,95,0.00,,,0.00,0,WeatherCatV1.14B232,2013-03-24 13:02:00,
2013-03-24 06:07:00,29.1,27.9,30.24,ESE,119,0.0,0.0,95,0.00,,,0.00,0,WeatherCatV1.14B232,2013-03-24 13:07:00,
2013-03-24 06:12:00,29.1,27.9,30.24,ESE,119,0.0,0.0,95,0.00,,,0.00,0,WeatherCatV1.14B232,2013-03-24 13:12:00,
2013-03-24 06:17:00,29.3,28.0,30.24,ESE,119,0.0,0.0,95,0.00,,,0.00,0,WeatherCatV1.14B232,2013-03-24 13:17:00,
2013-03-24 06:22:00,29.3,28.0,30.24,ESE,119,0.0,0.0,95,0.00,,,0.00,0,WeatherCatV1.14B232,2013-03-24 13:22:00,
2013-03-24 06:27:00,29.3,28.0,30.24,ESE,119,0.0,0.0,95,0.00,,,0.00,0,WeatherCatV1.14B232,2013-03-24 13:27:00,
2013-03-24 06:32:00,29.3,28.0,30.25,ESE,119,0.0,0.0,95,0.00,,,0.00,0,WeatherCatV1.14B232,2013-03-24 13:32:00,
2013-03-24 06:37:00,29.3,28.0,30.25,ESE,119,0.0,0.0,95,0.00,,,0.00,0,WeatherCatV1.14B232,2013-03-24 13:37:00,
2013-03-24 06:42:00,29.3,28.0,30.25,ESE,119,0.0,0.0,95,0.00,,,0.00,0,WeatherCatV1.14B232,2013-03-24 13:42:00,
2013-03-24 06:47:00,29.3,28.0,30.25,ESE,119,0.0,0.0,95,0.00,,,0.00,0,WeatherCatV1.14B232,2013-03-24 13:47:00,
2013-03-24 06:52:00,29.3,28.0,30.25,ESE,119,0.0,0.0,95,0.00,,,0.00,0,WeatherCatV1.14B232,2013-03-24 13:52:00,
2013-03-24 06:57:00,29.3,28.0,30.25,ESE,119,0.0,0.0,95,0.00,,,0.00,0,WeatherCatV1.14B232,2013-03-24 13:57:00,
2013-03-24 07:02:00,29.1,27.9,30.25,ESE,119,0.0,0.0,95,0.00,,,0.00,5,WeatherCatV1.14B232,2013-03-24 14:02:00,
2013-03-24 07:07:00,29.1,27.9,30.25,ESE,119,0.0,0.0,95,0.00,,,0.00,7,WeatherCatV1.14B232,2013-03-24 14:07:00,
2013-03-24 07:12:00,29.1,27.9,30.25,ESE,119,0.0,0.0,95,0.00,,,0.00,9,WeatherCatV1.14B232,2013-03-24 14:12:00,
2013-03-24 07:17:00,29.0,27.5,30.25,ESE,119,0.0,0.0,94,0.00,,,0.00,11,WeatherCatV1.14B232,2013-03-24 14:17:00,
2013-03-24 07:22:00,29.0,27.5,30.25,ESE,119,0.0,0.0,94,0.00,,,0.00,12,WeatherCatV1.14B232,2013-03-24 14:22:00,
2013-03-24 07:27:00,29.0,27.5,30.25,ESE,119,0.0,0.0,94,0.00,,,0.00,14,WeatherCatV1.14B232,2013-03-24 14:27:00,
2013-03-24 07:32:00,28.8,27.3,30.25,ESE,119,0.0,0.0,94,0.00,,,0.00,18,WeatherCatV1.14B232,2013-03-24 14:32:00,
2013-03-24 07:37:00,28.8,27.3,30.25,ESE,119,0.0,0.0,94,0.00,,,0.00,19,WeatherCatV1.14B232,2013-03-24 14:37:00,
2013-03-24 07:42:00,28.8,27.3,30.25,ESE,119,0.0,0.0,94,0.00,,,0.00,21,WeatherCatV1.14B232,2013-03-24 14:42:00,
2013-03-24 07:47:00,28.7,27.2,30.25,ESE,119,0.0,0.0,94,0.00,,,0.00,23,WeatherCatV1.14B232,2013-03-24 14:47:00,
2013-03-24 07:52:00,28.7,27.2,30.25,ESE,119,0.0,0.0,94,0.00,,,0.00,28,WeatherCatV1.14B232,2013-03-24 14:52:00,
2013-03-24 07:57:00,28.7,27.5,30.25,ESE,119,0.0,0.0,95,0.00,,,0.00,35,WeatherCatV1.14B232,2013-03-24 14:57:00,
2013-03-24 08:02:00,28.7,27.5,30.24,ESE,119,0.0,0.0,95,0.00,,,0.00,130,WeatherCatV1.14B232,2013-03-24 15:02:00,
2013-03-24 08:07:00,28.8,27.6,30.24,ESE,119,0.0,0.0,95,0.00,,,0.00,160,WeatherCatV1.14B232,2013-03-24 15:07:00,
2013-03-24 08:12:00,29.0,27.8,30.24,ESE,119,0.0,0.0,95,0.00,,,0.00,181,WeatherCatV1.14B232,2013-03-24 15:12:00,
2013-03-24 08:17:00,30.3,29.3,30.24,ESE,119,0.0,0.0,96,0.00,,,0.00,206,WeatherCatV1.14B232,2013-03-24 15:17:00,
2013-03-24 08:22:00,31.8,30.8,30.24,ESE,119,0.0,0.0,96,0.00,,,0.00,229,WeatherCatV1.14B232,2013-03-24 15:22:00,
2013-03-24 08:27:00,32.5,31.0,30.24,ESE,119,0.0,0.0,94,0.00,,,0.00,251,WeatherCatV1.14B232,2013-03-24 15:27:00,
2013-03-24 08:32:00,33.8,31.7,30.24,ESE,119,0.0,0.0,92,0.00,,,0.00,267,WeatherCatV1.14B232,2013-03-24 15:32:00,
2013-03-24 08:37:00,34.7,31.5,30.24,ESE,119,0.0,1.0,88,0.00,,,0.00,250,WeatherCatV1.14B232,2013-03-24 15:37:00,
2013-03-24 08:42:00,35.6,31.0,30.24,ESE,119,0.0,1.0,83,0.00,,,0.00,243,WeatherCatV1.14B232,2013-03-24 15:42:00,
2013-03-24 08:47:00,35.9,31.2,30.24,ESE,119,0.0,0.0,83,0.00,,,0.00,223,WeatherCatV1.14B232,2013-03-24 15:47:00,
2013-03-24 08:52:00,36.2,31.2,30.24,ESE,119,0.0,1.0,82,0.00,,,0.00,192,WeatherCatV1.14B232,2013-03-24 15:52:00,
2013-03-24 08:57:00,36.8,31.2,30.24,ESE,119,0.0,0.0,80,0.00,,,0.00,185,WeatherCatV1.14B232,2013-03-24 15:57:00,
2013-03-24 09:02:00,37.2,30.3,30.24,ESE,119,0.0,3.0,76,0.00,,,0.00,274,WeatherCatV1.14B232,2013-03-24 16:02:00,
2013-03-24 09:07:00,37.8,30.6,30.24,SE,136,0.0,1.0,75,0.00,,,0.00,341,WeatherCatV1.14B232,2013-03-24 16:07:00,
2013-03-24 09:12:00,38.9,31.7,30.24,SE,136,2.0,2.0,75,0.00,,,0.00,244,WeatherCatV1.14B232,2013-03-24 16:12:00,
2013-03-24 09:17:00,38.6,30.0,30.24,SE,124,0.0,0.0,71,0.00,,,0.00,225,WeatherCatV1.14B232,2013-03-24 16:17:00,
2013-03-24 09:22:00,39.6,32.0,30.24,SE,124,0.0,0.0,74,0.00,,,0.00,213,WeatherCatV1.14B232,2013-03-24 16:22:00,
2013-03-24 09:27:00,39.9,31.3,30.24,SE,124,0.0,0.0,71,0.00,,,0.00,230,WeatherCatV1.14B232,2013-03-24 16:27:00,
2013-03-24 09:32:00,39.9,31.6,30.24,SE,124,0.0,0.0,72,0.00,,,0.00,211,WeatherCatV1.14B232,2013-03-24 16:32:00,
2013-03-24 09:37:00,39.9,32.0,30.24,SE,124,0.0,0.0,73,0.00,,,0.00,195,WeatherCatV1.14B232,2013-03-24 16:37:00,
2013-03-24 09:42:00,39.8,31.2,30.24,SE,124,0.0,0.0,71,0.00,,,0.00,193,WeatherCatV1.14B232,2013-03-24 16:42:00,
2013-03-24 09:47:00,40.2,31.9,30.24,SE,124,0.0,0.0,72,0.00,,,0.00,193,WeatherCatV1.14B232,2013-03-24 16:47:00,
2013-03-24 09:52:00,40.6,31.9,30.24,SE,124,0.0,0.0,71,0.00,,,0.00,195,WeatherCatV1.14B232,2013-03-24 16:52:00,
2013-03-24 09:57:00,40.8,32.5,30.24,SE,124,0.0,0.0,72,0.00,,,0.00,192,WeatherCatV1.14B232,2013-03-24 16:57:00,
2013-03-24 10:02:00,40.6,32.3,30.24,SE,124,0.0,0.0,72,0.00,,,0.00,193,WeatherCatV1.14B232,2013-03-24 17:02:00,
2013-03-24 10:07:00,40.8,31.4,30.24,SE,124,0.0,0.0,69,0.00,,,0.00,209,WeatherCatV1.14B232,2013-03-24 17:07:00,
2013-03-24 10:12:00,40.9,31.2,30.24,SE,124,0.0,0.0,68,0.00,,,0.00,220,WeatherCatV1.14B232,2013-03-24 17:12:00,
2013-03-24 10:17:00,41.2,31.8,30.24,SE,124,0.0,0.0,69,0.00,,,0.00,239,WeatherCatV1.14B232,2013-03-24 17:17:00,
2013-03-24 10:22:00,40.9,31.2,30.24,SE,124,1.0,2.0,68,0.00,,,0.00,225,WeatherCatV1.14B232,2013-03-24 17:22:00,
2013-03-24 10:27:00,40.9,31.2,30.24,SE,124,0.0,1.0,68,0.00,,,0.00,236,WeatherCatV1.14B232,2013-03-24 17:27:00,
2013-03-24 10:32:00,41.3,31.9,30.23,SE,124,0.0,0.0,69,0.00,,,0.00,239,WeatherCatV1.14B232,2013-03-24 17:32:00,
2013-03-24 10:37:00,41.9,32.5,30.23,SE,124,0.0,1.0,69,0.00,,,0.00,243,WeatherCatV1.14B232,2013-03-24 17:37:00,
2013-03-24 10:42:00,42.3,32.1,30.23,SE,124,0.0,0.0,67,0.00,,,0.00,244,WeatherCatV1.14B232,2013-03-24 17:42:00,
2013-03-24 10:47:00,42.3,32.1,30.23,SE,124,0.0,0.0,67,0.00,,,0.00,248,WeatherCatV1.14B232,2013-03-24 17:47:00,
2013-03-24 10:52:00,42.5,31.2,30.23,SE,124,0.0,1.0,64,0.00,,,0.00,239,WeatherCatV1.14B232,2013-03-24 17:52:00,
2013-03-24 10:57:00,42.6,31.7,30.23,SE,124,0.0,0.0,65,0.00,,,0.00,227,WeatherCatV1.14B232,2013-03-24 17:57:00,
2013-03-24 11:02:00,43.1,32.1,30.23,SE,124,0.0,0.0,65,0.00,,,0.00,218,WeatherCatV1.14B232,2013-03-24 18:02:00,
2013-03-24 11:07:00,43.1,31.8,30.23,SE,124,1.0,1.0,64,0.00,,,0.00,213,WeatherCatV1.14B232,2013-03-24 18:07:00,
2013-03-24 11:12:00,43.3,31.6,30.23,SE,124,0.0,0.0,63,0.00,,,0.00,213,WeatherCatV1.14B232,2013-03-24 18:12:00,
2013-03-24 11:17:00,43.5,31.0,30.23,SE,124,0.0,0.0,61,0.00,,,0.00,218,WeatherCatV1.14B232,2013-03-24 18:17:00,
2013-03-24 11:22:00,43.8,31.2,30.23,SE,124,0.0,0.0,61,0.00,,,0.00,229,WeatherCatV1.14B232,2013-03-24 18:22:00,
2013-03-24 11:27:00,44.2,31.6,30.23,SE,124,0.0,0.0,61,0.00,,,0.00,241,WeatherCatV1.14B232,2013-03-24 18:27:00,
2013-03-24 11:32:00,44.1,31.5,30.23,SE,124,2.0,2.0,61,0.00,,,0.00,255,WeatherCatV1.14B232,2013-03-24 18:32:00,
2013-03-24 11:37:00,44.2,30.8,30.23,SE,126,0.0,1.0,59,0.00,,,0.00,264,WeatherCatV1.14B232,2013-03-24 18:37:00,
2013-03-24 11:42:00,44.3,30.5,30.23,SE,126,0.0,0.0,58,0.00,,,0.00,276,WeatherCatV1.14B232,2013-03-24 18:42:00,
2013-03-24 11:47:00,44.6,31.6,30.23,SE,126,0.0,1.0,60,0.00,,,0.00,292,WeatherCatV1.14B232,2013-03-24 18:47:00,
2013-03-24 11:52:00,44.6,32.4,30.23,SE,126,0.0,1.0,62,0.00,,,0.00,329,WeatherCatV1.14B232,2013-03-24 18:52:00,
2013-03-24 11:57:00,45.1,32.1,30.23,SE,126,0.0,2.0,60,0.00,,,0.00,350,WeatherCatV1.14B232,2013-03-24 18:57:00,
2013-03-24 12:02:00,45.4,32.3,30.22,ESE,122,0.0,1.0,60,0.00,,,0.00,387,WeatherCatV1.14B232,2013-03-24 19:02:00,
2013-03-24 12:07:00,45.7,31.8,30.22,ESE,123,0.0,2.0,58,0.00,,,0.00,381,WeatherCatV1.14B232,2013-03-24 19:07:00,
2013-03-24 12:12:00,45.5,31.6,30.22,SW,232,0.0,2.0,58,0.00,,,0.00,506,WeatherCatV1.14B232,2013-03-24 19:12:00,
2013-03-24 12:17:00,46.1,32.2,30.22,SW,232,0.0,1.0,58,0.00,,,0.00,654,WeatherCatV1.14B232,2013-03-24 19:17:00,
2013-03-24 12:22:00,46.5,32.5,30.22,NW,310,0.0,2.0,58,0.00,,,0.00,628,WeatherCatV1.14B232,2013-03-24 19:22:00,
2013-03-24 12:27:00,47.1,32.2,30.22,WSW,241,0.0,1.0,56,0.00,,,0.00,654,WeatherCatV1.14B232,2013-03-24 19:27:00,
2013-03-24 12:32:00,47.6,33.1,30.22,NNW,336,0.0,1.0,57,0.00,,,0.00,462,WeatherCatV1.14B232,2013-03-24 19:32:00,
2013-03-24 12:37:00,47.1,32.2,30.22,NNW,336,0.0,3.0,56,0.00,,,0.00,404,WeatherCatV1.14B232,2013-03-24 19:37:00,
2013-03-24 12:42:00,47.0,31.7,30.22,NNW,336,0.0,1.0,55,0.00,,,0.00,278,WeatherCatV1.14B232,2013-03-24 19:42:00,
2013-03-24 12:47:00,47.6,31.8,30.21,NNW,336,0.0,0.0,54,0.00,,,0.00,278,WeatherCatV1.14B232,2013-03-24 19:47:00,
2013-03-24 12:52:00,48.0,32.2,30.21,NNW,336,0.0,0.0,54,0.00,,,0.00,297,WeatherCatV1.14B232,2013-03-24 19:52:00,
2013-03-24 12:57:00,48.2,31.9,30.21,NNW,336,0.0,0.0,53,0.00,,,0.00,308,WeatherCatV1.14B232,2013-03-24 19:57:00,
2013-03-24 13:02:00,48.5,31.2,30.21,NNW,336,0.0,1.0,51,0.00,,,0.00,543,WeatherCatV1.14B232,2013-03-24 20:02:00,
2013-03-24 13:07:00,48.3,31.5,30.21,NNW,336,0.0,2.0,52,0.00,,,0.00,438,WeatherCatV1.14B232,2013-03-24 20:07:00,
2013-03-24 13:12:00,48.8,31.5,30.21,ENE,59,2.0,2.0,51,0.00,,,0.00,466,WeatherCatV1.14B232,2013-03-24 20:12:00,
2013-03-24 13:17:00,48.8,32.0,30.21,ENE,72,0.0,1.0,52,0.00,,,0.00,462,WeatherCatV1.14B232,2013-03-24 20:17:00,
2013-03-24 13:22:00,48.9,31.1,30.21,ESE,118,0.0,1.0,50,0.00,,,0.00,455,WeatherCatV1.14B232,2013-03-24 20:22:00,
2013-03-24 13:27:00,50.2,31.8,30.21,East,88,2.0,2.0,49,0.00,,,0.00,489,WeatherCatV1.14B232,2013-03-24 20:27:00,
2013-03-24 13:32:00,49.8,30.9,30.20,East,101,2.0,3.0,48,0.00,,,0.00,557,WeatherCatV1.14B232,2013-03-24 20:32:00,
2013-03-24 13:37:00,50.4,32.5,30.20,ENE,67,2.0,4.0,50,0.00,,,0.00,670,WeatherCatV1.14B232,2013-03-24 20:37:00,
2013-03-24 13:42:00,51.0,31.0,30.20,ESE,122,0.0,4.0,46,0.00,,,0.00,715,WeatherCatV1.14B232,2013-03-24 20:42:00,
2013-03-24 13:47:00,51.3,29.6,30.19,ENE,61,2.0,2.0,43,0.00,,,0.00,712,WeatherCatV1.14B232,2013-03-24 20:47:00,
2013-03-24 13:52:00,51.9,31.2,30.19,WNW,291,0.0,3.0,45,0.00,,,0.00,640,WeatherCatV1.14B232,2013-03-24 20:52:00,
2013-03-24 13:57:00,52.5,31.2,30.19,NNW,342,3.0,3.0,44,0.00,,,0.00,635,WeatherCatV1.14B232,2013-03-24 20:57:00,
2013-03-24 14:02:00,51.9,30.1,30.19,East,88,0.0,3.0,43,0.00,,,0.00,680,WeatherCatV1.14B232,2013-03-24 21:02:00,
2013-03-24 14:07:00,52.0,31.3,30.19,SE,128,0.0,2.0,45,0.00,,,0.00,573,WeatherCatV1.14B232,2013-03-24 21:07:00,
2013-03-24 14:12:00,53.2,33.0,30.19,SE,128,0.0,0.0,46,0.00,,,0.00,483,WeatherCatV1.14B232,2013-03-24 21:12:00,
2013-03-24 14:17:00,53.2,33.5,30.18,ESE,119,0.0,1.0,47,0.00,,,0.00,504,WeatherCatV1.14B232,2013-03-24 21:17:00,
2013-03-24 14:22:00,52.6,30.7,30.18,ESE,121,1.0,1.0,43,0.00,,,0.00,501,WeatherCatV1.14B232,2013-03-24 21:22:00,
2013-03-24 14:27:00,53.5,29.8,30.18,SE,146,1.0,3.0,40,0.00,,,0.00,591,WeatherCatV1.14B232,2013-03-24 21:27:00,
2013-03-24 14:32:00,53.5,29.8,30.18,SE,136,2.0,2.0,40,0.00,,,0.00,693,WeatherCatV1.14B232,2013-03-24 21:32:00,
2013-03-24 14:37:00,53.5,32.1,30.18,NE,38,1.0,5.0,44,0.00,,,0.00,800,WeatherCatV1.14B232,2013-03-24 21:37:00,
2013-03-24 14:42:00,54.4,28.7,30.18,SE,142,2.0,7.0,37,0.00,,,0.00,770,WeatherCatV1.14B232,2013-03-24 21:42:00,
2013-03-24 14:47:00,53.2,28.3,30.17,SE,126,4.0,6.0,38,0.00,,,0.00,742,WeatherCatV1.14B232,2013-03-24 21:47:00,
2013-03-24 14:52:00,53.3,31.4,30.17,ENE,77,0.0,6.0,43,0.00,,,0.00,712,WeatherCatV1.14B232,2013-03-24 21:52:00,
2013-03-24 14:57:00,53.9,31.3,30.17,ESE,117,0.0,2.0,42,0.00,,,0.00,666,WeatherCatV1.14B232,2013-03-24 21:57:00,
2013-03-24 15:02:00,53.6,29.3,30.16,ESE,113,3.0,4.0,39,0.00,,,0.00,668,WeatherCatV1.14B232,2013-03-24 22:02:00,
2013-03-24 15:07:00,54.4,30.6,30.16,SSW,205,5.0,6.0,40,0.00,,,0.00,617,WeatherCatV1.14B232,2013-03-24 22:07:00,
2013-03-24 15:12:00,54.1,28.4,30.16,WSW,242,1.0,2.0,37,0.00,,,0.00,454,WeatherCatV1.14B232,2013-03-24 22:12:00,
2013-03-24 15:17:00,55.0,29.9,30.16,WSW,242,0.0,0.0,38,0.00,,,0.00,420,WeatherCatV1.14B232,2013-03-24 22:17:00,
2013-03-24 15:22:00,55.0,28.5,30.16,SE,145,2.0,3.0,36,0.00,,,0.00,471,WeatherCatV1.14B232,2013-03-24 22:22:00,
2013-03-24 15:27:00,54.5,29.4,30.16,SE,125,0.0,1.0,38,0.00,,,0.00,494,WeatherCatV1.14B232,2013-03-24 22:27:00,
2013-03-24 15:32:00,54.4,25.2,30.16,SE,125,1.0,1.0,32,0.00,,,0.00,506,WeatherCatV1.14B232,2013-03-24 22:32:00,
2013-03-24 15:37:00,53.8,27.5,30.16,SSE,150,0.0,1.0,36,0.00,,,0.00,545,WeatherCatV1.14B232,2013-03-24 22:37:00,
2013-03-24 15:42:00,54.7,26.9,30.16,ESE,105,1.0,2.0,34,0.00,,,0.00,543,WeatherCatV1.14B232,2013-03-24 22:42:00,
2013-03-24 15:47:00,55.1,27.9,30.15,SSE,166,1.0,2.0,35,0.00,,,0.00,554,WeatherCatV1.14B232,2013-03-24 22:47:00,
2013-03-24 15:52:00,54.5,30.1,30.15,SE,142,0.0,1.0,39,0.00,,,0.00,550,WeatherCatV1.14B232,2013-03-24 22:52:00,
2013-03-24 15:57:00,54.4,28.7,30.15,East,101,1.0,3.0,37,0.00,,,0.00,538,WeatherCatV1.14B232,2013-03-24 22:57:00,
2013-03-24 16:02:00,54.4,26.6,30.14,East,86,3.0,4.0,34,0.00,,,0.00,524,WeatherCatV1.14B232,2013-03-24 23:02:00,
2013-03-24 16:07:00,53.9,26.2,30.14,SE,137,1.0,4.0,34,0.00,,,0.00,510,WeatherCatV1.14B232,2013-03-24 23:07:00,
2013-03-24 16:12:00,53.6,25.2,30.14,ESE,105,0.0,1.0,33,0.00,,,0.00,497,WeatherCatV1.14B232,2013-03-24 23:12:00,
2013-03-24 16:17:00,53.6,25.9,30.14,ESE,105,3.0,4.0,34,0.00,,,0.00,483,WeatherCatV1.14B232,2013-03-24 23:17:00,
2013-03-24 16:22:00,53.8,24.6,30.14,SE,145,1.0,9.0,32,0.00,,,0.00,469,WeatherCatV1.14B232,2013-03-24 23:22:00,
2013-03-24 16:27:00,53.6,25.2,30.14,ESE,113,2.0,3.0,33,0.00,,,0.00,461,WeatherCatV1.14B232,2013-03-24 23:27:00,
2013-03-24 16:32:00,54.1,24.9,30.13,ESE,111,1.0,1.0,32,0.00,,,0.00,448,WeatherCatV1.14B232,2013-03-24 23:32:00,
2013-03-24 16:37:00,54.4,23.6,30.13,ESE,111,0.0,2.0,30,0.00,,,0.00,436,WeatherCatV1.14B232,2013-03-24 23:37:00,
2013-03-24 16:42:00,54.7,26.9,30.13,ESE,111,0.0,1.0,34,0.00,,,0.00,424,WeatherCatV1.14B232,2013-03-24 23:42:00,
2013-03-24 16:47:00,54.7,26.2,30.13,SE,130,2.0,3.0,33,0.00,,,0.00,408,WeatherCatV1.14B232,2013-03-24 23:47:00,
2013-03-24 16:52:00,54.7,25.4,30.13,East,94,2.0,4.0,32,0.00,,,0.00,396,WeatherCatV1.14B232,2013-03-24 23:52:00,
2013-03-24 16:57:00,54.2,25.0,30.13,ENE,67,1.0,1.0,32,0.00,,,0.00,380,WeatherCatV1.14B232,2013-03-24 23:57:00,
2013-03-24 17:02:00,54.2,25.7,30.12,ESE,121,4.0,4.0,33,0.00,,,0.00,359,WeatherCatV1.14B232,2013-03-25 00:02:00,
2013-03-24 17:07:00,53.9,24.0,30.12,SE,137,0.0,3.0,31,0.00,,,0.00,353,WeatherCatV1.14B232,2013-03-25 00:07:00,
2013-03-24 17:12:00,54.1,29.1,30.12,East,86,0.0,0.0,38,0.00,,,0.00,339,WeatherCatV1.14B232,2013-03-25 00:12:00,
2013-03-24 17:17:00,54.2,21.8,30.12,SE,144,0.0,0.0,28,0.00,,,0.00,327,WeatherCatV1.14B232,2013-03-25 00:17:00,
2013-03-24 17:22:00,53.9,24.0,30.12,ESE,113,1.0,1.0,31,0.00,,,0.00,299,WeatherCatV1.14B232,2013-03-25 00:22:00,
2013-03-24 17:27:00,53.8,24.6,30.12,SE,144,0.0,1.0,32,0.00,,,0.00,258,WeatherCatV1.14B232,2013-03-25 00:27:00,
2013-03-24 17:32:00,53.6,26.6,30.11,ESE,117,0.0,2.0,35,0.00,,,0.00,274,WeatherCatV1.14B232,2013-03-25 00:32:00,
2013-03-24 17:37:00,53.6,28.0,30.11,ESE,117,0.0,1.0,37,0.00,,,0.00,255,WeatherCatV1.14B232,2013-03-25 00:37:00,
2013-03-24 17:42:00,54.2,26.5,30.11,South,174,0.0,1.0,34,0.00,,,0.00,197,WeatherCatV1.14B232,2013-03-25 00:42:00,
2013-03-24 17:47:00,54.2,27.2,30.11,South,174,0.0,0.0,35,0.00,,,0.00,171,WeatherCatV1.14B232,2013-03-25 00:47:00,
2013-03-24 17:52:00,53.9,27.6,30.11,East,99,2.0,3.0,36,0.00,,,0.00,141,WeatherCatV1.14B232,2013-03-25 00:52:00,
2013-03-24 17:57:00,53.5,25.8,30.11,SSE,155,0.0,4.0,34,0.00,,,0.00,91,WeatherCatV1.14B232,2013-03-25 00:57:00,
2013-03-24 18:02:00,53.3,24.9,30.11,ESE,119,2.0,4.0,33,0.00,,,0.00,91,WeatherCatV1.14B232,2013-03-25 01:02:00,
2013-03-24 18:07:00,53.3,26.4,30.11,SE,128,0.0,1.0,35,0.00,,,0.00,125,WeatherCatV1.14B232,2013-03-25 01:07:00,
2013-03-24 18:12:00,53.1,26.2,30.11,SE,127,0.0,0.0,35,0.00,,,0.00,67,WeatherCatV1.14B232,2013-03-25 01:12:00,
2013-03-24 18:17:00,52.9,26.0,30.11,SE,127,0.0,1.0,35,0.00,,,0.00,84,WeatherCatV1.14B232,2013-03-25 01:17:00,
2013-03-24 18:22:00,52.8,28.5,30.11,SE,127,0.0,0.0,39,0.00,,,0.00,72,WeatherCatV1.14B232,2013-03-25 01:22:00,
2013-03-24 18:27:00,52.6,29.0,30.11,WNW,286,0.0,2.0,40,0.00,,,0.00,76,WeatherCatV1.14B232,2013-03-25 01:27:00,
2013-03-24 18:32:00,52.2,29.8,30.10,WNW,284,1.0,1.0,42,0.00,,,0.00,65,WeatherCatV1.14B232,2013-03-25 01:32:00,
2013-03-24 18:37:00,51.9,29.5,30.10,WNW,284,0.0,0.0,42,0.00,,,0.00,47,WeatherCatV1.14B232,2013-03-25 01:37:00,
2013-03-24 18:42:00,51.6,29.8,30.10,WNW,284,0.0,0.0,43,0.00,,,0.00,25,WeatherCatV1.14B232,2013-03-25 01:42:00,
2013-03-24 18:47:00,51.3,30.1,30.10,WNW,284,0.0,0.0,44,0.00,,,0.00,23,WeatherCatV1.14B232,2013-03-25 01:47:00,
2013-03-24 18:52:00,50.5,30.5,30.10,WNW,284,0.0,0.0,46,0.00,,,0.00,26,WeatherCatV1.14B232,2013-03-25 01:52:00,
2013-03-24 18:57:00,49.9,30.0,30.10,WNW,284,0.0,0.0,46,0.00,,,0.00,18,WeatherCatV1.14B232,2013-03-25 01:57:00,
2013-03-24 19:02:00,49.6,30.7,30.10,WNW,284,0.0,0.0,48,0.00,,,0.00,16,WeatherCatV1.14B232,2013-03-25 02:02:00,
2013-03-24 19:07:00,49.1,32.2,30.10,WNW,284,0.0,1.0,52,0.00,,,0.00,12,WeatherCatV1.14B232,2013-03-25 02:07:00,
2013-03-24 19:12:00,48.2,32.3,30.10,WNW,284,0.0,0.0,54,0.00,,,0.00,11,WeatherCatV1.14B232,2013-03-25 02:12:00,
2013-03-24 19:17:00,47.6,32.2,30.10,WNW,284,0.0,0.0,55,0.00,,,0.00,9,WeatherCatV1.14B232,2013-03-25 02:17:00,
2013-03-24 19:22:00,46.8,33.2,30.10,WNW,284,0.0,0.0,59,0.00,,,0.00,7,WeatherCatV1.14B232,2013-03-25 02:22:00,
2013-03-24 19:27:00,46.1,33.0,30.10,WNW,284,0.0,0.0,60,0.00,,,0.00,5,WeatherCatV1.14B232,2013-03-25 02:27:00,
2013-03-24 19:32:00,45.8,32.7,30.10,WNW,284,0.0,0.0,60,0.00,,,0.00,0,WeatherCatV1.14B232,2013-03-25 02:32:00,
2013-03-24 19:37:00,45.1,32.5,30.10,WNW,284,0.0,0.0,61,0.00,,,0.00,0,WeatherCatV1.14B232,2013-03-25 02:37:00,
2013-03-24 19:42:00,44.8,32.2,30.10,WNW,284,0.0,0.0,61,0.00,,,0.00,0,WeatherCatV1.14B232,2013-03-25 02:42:00,
2013-03-24 19:47:00,44.6,31.6,30.10,WNW,284,0.0,0.0,60,0.00,,,0.00,0,WeatherCatV1.14B232,2013-03-25 02:47:00,
2013-03-24 19:52:00,44.3,31.7,30.10,WNW,284,0.0,1.0,61,0.00,,,0.00,0,WeatherCatV1.14B232,2013-03-25 02:52:00,
2013-03-24 19:57:00,44.3,31.7,30.10,WNW,284,0.0,0.0,61,0.00,,,0.00,0,WeatherCatV1.14B232,2013-03-25 02:57:00,
2013-03-24 20:02:00,43.9,31.7,30.10,WNW,284,0.0,0.0,62,0.00,,,0.00,0,WeatherCatV1.14B232,2013-03-25 03:02:00,
2013-03-24 20:07:00,43.3,32.0,30.10,WNW,284,0.0,0.0,64,0.00,,,0.00,0,WeatherCatV1.14B232,2013-03-25 03:07:00,
2013-03-24 20:12:00,42.8,33.0,30.10,WNW,284,0.0,0.0,68,0.00,,,0.00,0,WeatherCatV1.14B232,2013-03-25 03:12:00,
2013-03-24 20:17:00,42.6,33.2,30.10,WNW,285,0.0,0.0,69,0.00,,,0.00,0,WeatherCatV1.14B232,2013-03-25 03:17:00,
2013-03-24 20:22:00,42.3,33.2,30.10,WNW,285,0.0,0.0,70,0.00,,,0.00,0,WeatherCatV1.14B232,2013-03-25 03:22:00,
2013-03-24 20:27:00,41.9,33.5,30.10,WNW,285,0.0,0.0,72,0.00,,,0.00,0,WeatherCatV1.14B232,2013-03-25 03:27:00,
2013-03-24 20:32:00,41.5,33.5,30.10,WNW,285,0.0,0.0,73,0.00,,,0.00,0,WeatherCatV1.14B232,2013-03-25 03:32:00,
2013-03-24 20:37:00,41.3,33.6,30.10,ESE,113,0.0,2.0,74,0.00,,,0.00,0,WeatherCatV1.14B232,2013-03-25 03:37:00,
2013-03-24 20:42:00,41.5,33.8,30.10,ESE,113,1.0,1.0,74,0.00,,,0.00,0,WeatherCatV1.14B232,2013-03-25 03:42:00,
2013-03-24 20:47:00,41.3,33.6,30.10,SE,129,0.0,0.0,74,0.00,,,0.00,0,WeatherCatV1.14B232,2013-03-25 03:47:00,
2013-03-24 20:52:00,41.2,33.6,30.10,SE,129,0.0,0.0,74,0.00,,,0.00,0,WeatherCatV1.14B232,2013-03-25 03:52:00,
2013-03-24 20:57:00,41.1,33.5,30.10,SE,129,0.0,0.0,74,0.00,,,0.00,0,WeatherCatV1.14B232,2013-03-25 03:57:00,
2013-03-24 21:00:00,40.9,33.3,30.10,SE,129,0.0,0.0,74,0.00,,,0.00,0,WeatherCatV1.14B232,2013-03-25 04:00:00,
2013-03-24 21:01:00,40.9,33.6,30.10,SE,129,0.0,1.0,75,0.00,,,0.00,0,WeatherCatV1.14B232,2013-03-25 04:01:00,
2013-03-24 21:06:00,40.8,33.5,30.10,SE,129,0.0,0.0,75,0.00,,,0.00,0,WeatherCatV1.14B232,2013-03-25 04:06:00,
2013-03-24 21:11:00,40.8,33.5,30.10,SE,130,0.0,1.0,75,0.00,,,0.00,0,WeatherCatV1.14B232,2013-03-25 04:11:00,
2013-03-24 21:16:00,40.6,33.3,30.11,SE,130,0.0,0.0,75,0.00,,,0.00,0,WeatherCatV1.14B232,2013-03-25 04:16:00,
2013-03-24 21:21:00,40.3,33.0,30.11,SE,130,0.0,0.0,75,0.00,,,0.00,0,WeatherCatV1.14B232,2013-03-25 04:21:00,
2013-03-24 21:26:00,40.2,33.2,30.11,SE,130,0.0,0.0,76,0.00,,,0.00,0,WeatherCatV1.14B232,2013-03-25 04:26:00,
2013-03-24 21:31:00,40.1,33.2,30.11,SE,130,0.0,0.0,76,0.00,,,0.00,0,WeatherCatV1.14B232,2013-03-25 04:31:00,
2013-03-24 21:32:00,39.9,33.0,30.11,SE,130,0.0,0.0,76,0.00,,,0.00,0,WeatherCatV1.14B232,2013-03-25 04:32:00,
2013-03-24 21:37:00,39.8,32.9,30.11,SE,130,0.0,0.0,76,0.00,,,0.00,0,WeatherCatV1.14B232,2013-03-25 04:37:00,
2013-03-24 21:42:00,39.8,32.9,30.11,SE,130,0.0,0.0,76,0.00,,,0.00,0,WeatherCatV1.14B232,2013-03-25 04:42:00,
2013-03-24 21:47:00,39.8,32.9,30.11,SE,135,0.0,1.0,76,0.00,,,0.00,0,WeatherCatV1.14B232,2013-03-25 04:47:00,
2013-03-24 21:52:00,39.8,32.9,30.11,SE,135,0.0,0.0,76,0.00,,,0.00,0,WeatherCatV1.14B232,2013-03-25 04:52:00,
2013-03-24 21:57:00,39.6,32.7,30.11,SE,142,0.0,1.0,76,0.00,,,0.00,0,WeatherCatV1.14B232,2013-03-25 04:57:00,
2013-03-24 22:02:00,39.6,32.7,30.11,SE,139,0.0,1.0,76,0.00,,,0.00,0,WeatherCatV1.14B232,2013-03-25 05:02:00,
2013-03-24 22:07:00,39.8,32.5,30.11,SE,132,0.0,1.0,75,0.00,,,0.00,0,WeatherCatV1.14B232,2013-03-25 05:07:00,
2013-03-24 22:12:00,39.8,32.5,30.11,SSE,150,0.0,0.0,75,0.00,,,0.00,0,WeatherCatV1.14B232,2013-03-25 05:12:00,
2013-03-24 22:17:00,39.5,32.2,30.11,SSE,150,0.0,0.0,75,0.00,,,0.00,0,WeatherCatV1.14B232,2013-03-25 05:17:00,
2013-03-24 22:22:00,39.2,32.3,30.11,SSE,150,0.0,0.0,76,0.00,,,0.00,0,WeatherCatV1.14B232,2013-03-25 05:22:00,
2013-03-24 22:27:00,39.2,32.3,30.11,SSE,150,0.0,1.0,76,0.00,,,0.00,0,WeatherCatV1.14B232,2013-03-25 05:27:00,
2013-03-24 22:32:00,39.1,32.2,30.11,SSE,148,0.0,2.0,76,0.00,,,0.00,0,WeatherCatV1.14B232,2013-03-25 05:32:00,
2013-03-24 22:37:00,38.9,32.0,30.11,SE,138,0.0,0.0,76,0.00,,,0.00,0,WeatherCatV1.14B232,2013-03-25 05:37:00,
2013-03-24 22:42:00,38.6,32.0,30.11,SE,134,0.0,1.0,77,0.00,,,0.00,0,WeatherCatV1.14B232,2013-03-25 05:42:00,
2013-03-24 22:47:00,38.6,31.7,30.11,SE,134,1.0,1.0,76,0.00,,,0.00,0,WeatherCatV1.14B232,2013-03-25 05:47:00,
2013-03-24 22:52:00,38.8,31.9,30.11,SSE,152,0.0,0.0,76,0.00,,,0.00,0,WeatherCatV1.14B232,2013-03-25 05:52:00,
2013-03-24 22:57:00,38.6,31.7,30.11,SSE,149,1.0,1.0,76,0.00,,,0.00,0,WeatherCatV1.14B232,2013-03-25 05:57:00,
2013-03-24 23:02:00,38.8,31.9,30.11,SE,136,0.0,1.0,76,0.00,,,0.00,0,WeatherCatV1.14B232,2013-03-25 06:02:00,
2013-03-24 23:07:00,38.6,31.4,30.11,SE,136,0.0,0.0,75,0.00,,,0.00,0,WeatherCatV1.14B232,2013-03-25 06:07:00,
2013-03-24 23:12:00,38.5,31.6,30.11,SE,138,0.0,0.0,76,0.00,,,0.00,0,WeatherCatV1.14B232,2013-03-25 06:12:00,
2013-03-24 23:17:00,38.0,31.1,30.11,SE,137,0.0,0.0,76,0.00,,,0.00,0,WeatherCatV1.14B232,2013-03-25 06:17:00,
2013-03-24 23:22:00,37.9,31.3,30.11,SE,138,0.0,0.0,77,0.00,,,0.00,0,WeatherCatV1.14B232,2013-03-25 06:22:00,
2013-03-24 23:27:00,37.6,31.4,30.11,SE,138,0.0,0.0,78,0.00,,,0.00,0,WeatherCatV1.14B232,2013-03-25 06:27:00,
2013-03-24 23:32:00,37.3,31.1,30.11,SE,138,0.0,0.0,78,0.00,,,0.00,0,WeatherCatV1.14B232,2013-03-25 06:32:00,
2013-03-24 23:37:00,37.2,31.3,30.11,SE,138,0.0,0.0,79,0.00,,,0.00,0,WeatherCatV1.14B232,2013-03-25 06:37:00,
2013-03-24 23:42:00,36.9,31.0,30.11,SE,138,0.0,0.0,79,0.00,,,0.00,0,WeatherCatV1.14B232,2013-03-25 06:42:00,
2013-03-24 23:47:00,36.6,31.0,30.11,SE,138,0.0,0.0,80,0.00,,,0.00,0,WeatherCatV1.14B232,2013-03-25 06:47:00,
2013-03-24 23:52:00,36.5,30.9,30.11,SE,138,0.0,0.0,80,0.00,,,0.00,0,WeatherCatV1.14B232,2013-03-25 06:52:00,
2013-03-24 23:57:00,36.2,30.9,30.11,SE,138,0.0,0.0,81,0.00,,,0.00,0,WeatherCatV1.14B232,2013-03-25 06:57:00,